Regional Weather Roundup
Issued by NWS

Home | Current Version | Previous Version | Text Only | Print | Product List | Glossary On
Versions: 1 2 3 4 5 6 7 8 9 10 11 12 13 14 15 16 17 18 19 20 21 22 23 24 25 26 27 28 29 30 31 32 33 34 35 36 37 38 39 40 41 42 43 44 45 46 47 48 49 50
000
ASUS45 KREV 302010
RWRNV
NEVADA REGIONAL WEATHER ROUNDUP
NATIONAL WEATHER SERVICE RENO NV
100 PM PDT SAT AUG 30 2014

NOTE: "FAIR" INDICATES FEW OR NO CLOUDS BELOW 12,000 FEET WITH NO
SIGNIFICANT WEATHER AND/OR OBSTRUCTIONS TO VISIBILITY.

NVZ001-003-004-302100-
WESTERN NEVADA

CITY           SKY/WX    TMP DP  RH WIND       PRES   REMARKS
RENO           MOSUNNY   88  29  12 W12G18    29.97F
CARSON CITY    FAIR      82  30  15 W15G26    30.03F
MINDEN         FAIR      84  30  14 W10G24    30.04F
SLIDE MTN        N/A     57  32  38 W20         N/A
PYRAMID LAKE     N/A     75 N/A N/A N8          N/A
FALLON         MOSUNNY   87  31  13 NW9G16    29.96F
LOVELOCK       SUNNY     87  35  15 W18G28    29.94F
HAWTHORNE      SUNNY     91  23   8 N21G26    29.94F
$$

NVZ002-CAZ072-073-302100-
NORTHERN AND CENTRAL SIERRA

CITY           SKY/WX    TMP DP  RH WIND       PRES   REMARKS
S. LAKE TAHOE  SUNNY     76  28  17 S10G22    30.15F
TRUCKEE        MOSUNNY   79  30  17 W14G23    30.11F
SQUAW VLY 8000 NOT AVBL
SUSANVILLE     SUNNY     82  32  16 W14G21    29.98
BLUE CANYON    SUNNY     75  31  19 SW8G18    30.12F
MAMMOTH LAKES  FAIR      81  25  12 W15G26    30.21S
BRIDGEPORT     FAIR      79  20  11 SW18G26   30.16R
$$

NVZ030-031-036-302100-
NORTHERN NEVADA

CITY           SKY/WX    TMP DP  RH WIND       PRES   REMARKS
ELKO           PTSUNNY   82  33  17 SW12G28   29.98F
WINNEMUCCA     SUNNY     83  32  16 W14       29.96F
WENDOVER       SUNNY     84  34  16 E8        29.90F
$$

NVZ035-037-302100-
CENTRAL NEVADA

CITY           SKY/WX    TMP DP  RH WIND       PRES   REMARKS
ELY            SUNNY     81  28  14 SW9G25    30.06F
EUREKA           N/A     82  23  11 W15G25    30.03F
$$

NVZ013-014-302100-
SOUTH CENTRAL NEVADA

CITY           SKY/WX    TMP DP  RH WIND       PRES   REMARKS
TONOPAH        SUNNY     86  27  11 MISG      30.05F
$$

NVZ017-020-022-302100-
SOUTHERN NEVADA

CITY           SKY/WX    TMP DP  RH WIND       PRES   REMARKS
LAS VEGAS      PTSUNNY  102  29   7 S21G30    29.76F
N. LAS VEGAS   PTSUNNY  102  28   7 S14G23    29.79F
NELLIS AFB     PTSUNNY  102  33   9 S13G18    29.77F
HENDERSON      PTSUNNY  103  29   7 S17G26    29.83F
MERCURY        MOSUNNY   96  26   8 SW14G22   29.90F
$$



USA.gov is the U.S. government's official web portal to all federal, state and local government web resources and services.